View from above orbital plane
|
View from above satellite
|
Ground track
|
The orbit data is extracted from the following two-line orbital elements,
1 14148U 83061B 21060.15177369 .00000079 00000-0 66419-5 0 9991
2 14148 82.5159 82.2738 0021291 189.0971 237.4880 14.83367220 14272
Epoch (UTC): | 01 March 2021 03:38:33 |
Eccentricity: | 0.0021291 |
inclination: | 82.5159° |
perigee height: | 604 km |
apogee height: | 633 km |
right ascension of ascending node: | 82.2738° |
argument of perigee: | 189.0971° |
revolutions per day: | 14.83367220 |
mean anomaly at epoch: | 237.4880° |
orbit number at epoch: | 1427 |
The dashed part of the orbit path shows where the satellite is in the earth's shadow,
|
|